DIAMOND BLUE (42786 NORAD) Tracking and Keplerian Element Data

This shows tracking and keplerian element data for the satellite.

Feedback or suggestion? Click here.




ElementValue
Catalog42786
NameDIAMOND BLUE
Epoch Orbit8241
Epoch Day351.74353492
Epoch Year2018
RAAN48.1943
Inclination97.3787
Eccentricity0.0012955
Argument of Perigee147.7121
Mean Anonmoly212.4911
Mean Motion15.2183096
Decay Rate7.6E-06
L11 42786U 17036X 18351.74353492 .00000760 00000-0 36422-4 0 9993
L22 42786 97.3787 48.1943 0012955 147.7121 212.4911 15.21830960 82414

Live tracking and technical data element details for DIAMOND BLUE (NORAD 42786). DIAMOND BLUE can be tracked NOW for your location showing map with azimuth and elevation plus other details from your city location.

Track the satellite on the map from your city or location and see movement details for azimuth, elevation, latitude, longitude, range, height, and movement on the map or in text.







IsCatalogInMostPopularTable: catalog: 42786, numindb: 113
Update: records affected: 1



GetName: 42786 DIAMOND BLUE

Hit Count: updated at: Wed, 19 Dec 2018 15:16:39 GMT